TimeAKDT,TemperatureF,Dew PointF,Humidity,Sea Level PressureIn,VisibilityMPH,Wind Direction,Wind SpeedMPH,Gust SpeedMPH,PrecipitationIn,Events,Conditions,WindDirDegrees,DateUTC
12:16 AM,32.0,8.6,38,29.76,10.0,NNE,6.9,18.4,N/A,,Clear,20,2013-04-26 08:16:00
12:36 AM,32.0,8.6,38,29.76,10.0,NNE,6.9,-,N/A,,Clear,30,2013-04-26 08:36:00
12:56 AM,30.2,8.6,40,29.76,10.0,NNE,6.9,-,N/A,,Clear,20,2013-04-26 08:56:00
1:36 AM,30.2,8.6,40,29.76,10.0,North,8.1,-,N/A,,Clear,10,2013-04-26 09:36:00
1:56 AM,30.2,8.6,40,29.77,10.0,North,9.2,-,N/A,,Clear,360,2013-04-26 09:56:00
2:16 AM,30.2,8.6,40,29.76,10.0,NNE,6.9,-,N/A,,Clear,20,2013-04-26 10:16:00
2:36 AM,30.2,8.6,40,29.76,10.0,North,3.5,-,N/A,,Clear,10,2013-04-26 10:36:00
2:56 AM,30.2,8.6,40,29.78,10.0,NNW,5.8,-,N/A,,Clear,330,2013-04-26 10:56:00
3:16 AM,30.2,8.6,40,29.77,10.0,North,6.9,-,N/A,,Clear,350,2013-04-26 11:16:00
3:36 AM,30.2,8.6,40,29.76,10.0,North,4.6,-,N/A,,Clear,360,2013-04-26 11:36:00
3:56 AM,28.4,8.6,43,29.76,10.0,NNW,5.8,-,N/A,,Clear,330,2013-04-26 11:56:00
4:16 AM,28.4,8.6,43,29.76,10.0,North,4.6,-,N/A,,Clear,10,2013-04-26 12:16:00
4:36 AM,28.4,8.6,43,29.75,10.0,NNE,5.8,-,N/A,,Clear,20,2013-04-26 12:36:00
4:56 AM,28.4,6.8,40,29.75,10.0,Calm,Calm,-,N/A,,Clear,0,2013-04-26 12:56:00
5:16 AM,28.4,8.6,43,29.75,10.0,Calm,Calm,-,N/A,,Clear,0,2013-04-26 13:16:00
5:36 AM,28.4,8.6,43,29.74,10.0,Calm,Calm,-,N/A,,Clear,0,2013-04-26 13:36:00
5:56 AM,24.8,8.6,50,29.73,10.0,WNW,4.6,-,N/A,,Clear,290,2013-04-26 13:56:00
6:16 AM,26.6,8.6,47,29.72,10.0,NE,4.6,-,N/A,,Clear,40,2013-04-26 14:16:00
6:36 AM,24.8,6.8,46,29.72,10.0,SSE,4.6,-,N/A,,Clear,160,2013-04-26 14:36:00
6:56 AM,26.6,8.6,47,29.72,10.0,Calm,Calm,-,N/A,,Clear,0,2013-04-26 14:56:00
7:16 AM,24.8,10.4,54,29.72,10.0,Calm,Calm,-,N/A,,Clear,0,2013-04-26 15:16:00
7:36 AM,24.8,10.4,54,29.71,10.0,Calm,Calm,-,N/A,,Clear,0,2013-04-26 15:36:00
7:56 AM,24.8,10.4,54,29.70,10.0,Calm,Calm,-,N/A,,Clear,0,2013-04-26 15:56:00
8:16 AM,28.4,10.4,47,29.70,10.0,Calm,Calm,-,N/A,,Clear,0,2013-04-26 16:16:00
8:56 AM,28.4,8.6,43,29.69,10.0,Calm,Calm,-,N/A,,Clear,0,2013-04-26 16:56:00
9:16 AM,28.4,8.6,43,29.69,10.0,Calm,Calm,-,N/A,,Clear,0,2013-04-26 17:16:00
9:36 AM,30.2,8.6,40,29.68,10.0,Calm,Calm,-,N/A,,Clear,0,2013-04-26 17:36:00
9:56 AM,30.2,8.6,40,29.67,10.0,West,3.5,-,N/A,,Clear,280,2013-04-26 17:56:00
10:16 AM,30.2,8.6,40,29.66,10.0,WSW,3.5,-,N/A,,Clear,250,2013-04-26 18:16:00
10:36 AM,32.0,8.6,38,29.66,10.0,Calm,Calm,-,N/A,,Clear,0,2013-04-26 18:36:00
10:56 AM,32.0,8.6,38,29.66,10.0,SW,4.6,-,N/A,,Clear,230,2013-04-26 18:56:00
11:16 AM,33.8,10.4,38,29.65,10.0,WNW,4.6,-,N/A,,Clear,290,2013-04-26 19:16:00
11:36 AM,33.8,10.4,38,29.64,10.0,WSW,4.6,-,N/A,,Clear,240,2013-04-26 19:36:00
11:56 AM,33.8,10.4,38,29.63,10.0,West,8.1,-,N/A,,Clear,280,2013-04-26 19:56:00
12:16 PM,33.8,12.2,41,29.62,10.0,West,8.1,-,N/A,,Clear,280,2013-04-26 20:16:00
12:36 PM,35.6,12.2,38,29.62,10.0,West,5.8,-,N/A,,Scattered Clouds,260,2013-04-26 20:36:00
12:56 PM,35.6,12.2,38,29.61,10.0,West,9.2,-,N/A,,Mostly Cloudy,270,2013-04-26 20:56:00
1:16 PM,35.6,12.2,38,29.60,10.0,West,5.8,-,N/A,,Partly Cloudy,280,2013-04-26 21:16:00
1:36 PM,35.6,12.2,38,29.59,10.0,West,5.8,-,N/A,,Clear,280,2013-04-26 21:36:00
1:56 PM,35.6,12.2,38,29.58,10.0,WNW,4.6,-,N/A,,Clear,290,2013-04-26 21:56:00
2:16 PM,35.6,12.2,38,29.57,10.0,West,8.1,-,N/A,,Clear,280,2013-04-26 22:16:00
2:36 PM,35.6,15.8,44,29.57,10.0,West,10.4,-,N/A,,Clear,260,2013-04-26 22:36:00
2:56 PM,35.6,15.8,44,29.56,10.0,West,9.2,-,N/A,,Clear,280,2013-04-26 22:56:00
3:16 PM,37.4,14.0,38,29.56,10.0,West,9.2,-,N/A,,Clear,280,2013-04-26 23:16:00
3:36 PM,37.4,15.8,41,29.55,10.0,West,9.2,-,N/A,,Clear,270,2013-04-26 23:36:00
3:56 PM,37.4,15.8,41,29.54,10.0,West,11.5,-,N/A,,Clear,270,2013-04-26 23:56:00
4:16 PM,37.4,14.0,38,29.53,10.0,WNW,10.4,-,N/A,,Clear,290,2013-04-27 00:16:00
4:36 PM,37.4,14.0,38,29.52,10.0,West,10.4,-,N/A,,Clear,280,2013-04-27 00:36:00
4:56 PM,37.4,12.2,36,29.52,10.0,West,9.2,-,N/A,,Scattered Clouds,280,2013-04-27 00:56:00
5:16 PM,37.4,15.8,41,29.52,10.0,WNW,9.2,-,N/A,,Partly Cloudy,300,2013-04-27 01:16:00
5:36 PM,39.2,14.0,36,29.52,10.0,NW,5.8,-,N/A,,Mostly Cloudy,310,2013-04-27 01:36:00
5:56 PM,39.2,12.2,33,29.51,10.0,WNW,6.9,-,N/A,,Partly Cloudy,290,2013-04-27 01:56:00
6:16 PM,39.2,12.2,33,29.51,10.0,WNW,8.1,-,N/A,,Scattered Clouds,290,2013-04-27 02:16:00
6:36 PM,39.2,14.0,36,29.50,10.0,NW,6.9,-,N/A,,Mostly Cloudy,310,2013-04-27 02:36:00
6:56 PM,37.4,15.8,41,29.50,10.0,NW,8.1,-,N/A,,Overcast,310,2013-04-27 02:56:00
7:16 PM,37.4,12.2,36,29.50,10.0,WNW,9.2,-,N/A,,Overcast,300,2013-04-27 03:16:00
7:36 PM,37.4,12.2,36,29.50,10.0,WNW,9.2,-,N/A,,Overcast,290,2013-04-27 03:36:00
7:56 PM,37.4,12.2,36,29.49,10.0,NW,6.9,-,N/A,,Overcast,310,2013-04-27 03:56:00
8:16 PM,37.4,12.2,36,29.49,10.0,WNW,6.9,-,N/A,,Overcast,290,2013-04-27 04:16:00
8:36 PM,35.6,15.8,44,29.49,10.0,NW,6.9,-,N/A,,Overcast,310,2013-04-27 04:36:00
8:56 PM,35.6,12.2,38,29.49,10.0,West,6.9,-,N/A,,Overcast,280,2013-04-27 04:56:00
9:16 PM,35.6,17.6,48,29.49,10.0,WNW,8.1,-,N/A,,Overcast,290,2013-04-27 05:16:00
9:36 PM,35.6,17.6,48,29.49,10.0,West,8.1,-,N/A,,Overcast,280,2013-04-27 05:36:00
9:56 PM,35.6,17.6,48,29.49,10.0,WNW,5.8,-,N/A,,Overcast,290,2013-04-27 05:56:00
10:16 PM,33.8,17.6,52,29.50,10.0,Calm,Calm,-,N/A,,Overcast,0,2013-04-27 06:16:00
10:36 PM,33.8,17.6,52,29.50,10.0,WSW,3.5,-,N/A,,Overcast,240,2013-04-27 06:36:00
10:56 PM,33.8,19.4,56,29.51,10.0,West,5.8,-,N/A,,Overcast,260,2013-04-27 06:56:00
11:16 PM,33.8,19.4,56,29.51,10.0,SSW,3.5,-,N/A,,Overcast,210,2013-04-27 07:16:00
11:36 PM,33.8,21.2,60,29.52,10.0,West,5.8,-,N/A,,Overcast,280,2013-04-27 07:36:00
11:56 PM,32.0,21.2,64,29.52,10.0,West,6.9,-,N/A,,Overcast,260,2013-04-27 07:56:00